| time (UTC) | temp C | wind direction | speed KPH | gust KPH | rain 1hr cm | rain 24hr cm | rain mn cm | humidity % | barometer mb |
| 20260508194553 | 13 | 270 | 12.9 | 27.4 | 0.00 | 0.00 | 0.00 | 34 | 1008.1 |
| 20260508194039 | 13 | 248 | 9.7 | 27.4 | 0.00 | 0.00 | 0.00 | 37 | 1008.1 |
| 20260508193531 | 13 | 248 | 3.2 | 33.8 | 0.00 | 0.00 | 0.00 | 35 | 1008.2 |
| 20260508192000 | 13 | 270 | 16.1 | 40.2 | 0.00 | 0.00 | 0.00 | 36 | 1008.3 |
| 20260508191448 | 13 | 248 | 27.4 | 40.2 | 0.00 | 0.00 | 0.00 | 34 | 1008.1 |
| 20260508190941 | 14 | 270 | 22.5 | 40.2 | 0.00 | 0.00 | 0.00 | 34 | 1008.2 |
| 20260508185920 | 13 | 315 | 8.0 | 35.4 | 0.00 | 0.00 | 0.00 | 35 | 1008.3 |
| 20260508185415 | 13 | 270 | 11.3 | 37.0 | 0.00 | 0.00 | 0.00 | 37 | 1008.4 |
| 20260508184857 | 13 | 270 | 17.7 | 37.0 | 0.00 | 0.00 | 0.00 | 37 | 1008.6 |
| 20260508184352 | 13 | 270 | 3.2 | 32.2 | 0.00 | 0.00 | 0.00 | 38 | 1008.5 |
| 20260508183840 | 13 | 270 | 12.9 | 38.6 | 0.00 | 0.00 | 0.00 | 37 | 1008.3 |
| 20260508183328 | 13 | 293 | 24.1 | 43.5 | 0.00 | 0.00 | 0.00 | 36 | 1008.7 |
| 20260508182307 | 13 | 315 | 20.9 | 46.7 | 0.00 | 0.00 | 0.00 | 38 | 1008.7 |
| 20260508180229 | 13 | 270 | 12.9 | 43.5 | 0.00 | 0.00 | 0.00 | 41 | 1008.7 |
| 20260508175721 | 13 | 270 | 22.5 | 43.5 | 0.00 | 0.00 | 0.00 | 39 | 1008.8 |
| 20260508175212 | 13 | 270 | 25.7 | 43.5 | 0.00 | 0.00 | 0.00 | 40 | 1008.8 |
| 20260508174659 | 13 | 270 | 25.7 | 43.5 | 0.00 | 0.00 | 0.00 | 39 | 1008.8 |
| 20260508174149 | 13 | 270 | 12.9 | 35.4 | 0.00 | 0.00 | 0.00 | 40 | 1008.8 |
| 20260508173638 | 13 | 225 | 12.9 | 35.4 | 0.00 | 0.00 | 0.00 | 40 | 1008.8 |
| 20260508172620 | 13 | 248 | 17.7 | 40.2 | 0.00 | 0.00 | 0.00 | 43 | 1008.9 |
| 20260508172106 | 13 | 270 | 30.6 | 40.2 | 0.00 | 0.00 | 0.00 | 42 | 1008.9 |
| 20260508171558 | 13 | 293 | 33.8 | 40.2 | 0.00 | 0.00 | 0.00 | 42 | 1009.0 |
| 20260508171045 | 13 | 270 | 27.4 | 37.0 | 0.00 | 0.00 | 0.00 | 42 | 1009.0 |
| 20260508170544 | 13 | 270 | 17.7 | 32.2 | 0.00 | 0.00 | 0.00 | 43 | 1009.2 |
| 20260508170025 | 13 | 225 | 6.4 | 37.0 | 0.00 | 0.00 | 0.00 | 44 | 1009.2 |
| 20260508165515 | 12 | 248 | 16.1 | 37.0 | 0.00 | 0.00 | 0.00 | 44 | 1009.2 |
| 20260508165005 | 12 | 248 | 19.3 | 40.2 | 0.00 | 0.00 | 0.00 | 45 | 1009.4 |
| 20260508164457 | 12 | 248 | 27.4 | 46.7 | 0.00 | 0.00 | 0.00 | 45 | 1009.3 |
| 20260508163945 | 12 | 270 | 35.4 | 46.7 | 0.00 | 0.00 | 0.00 | 43 | 1009.5 |
| 20260508163435 | 12 | 270 | 6.4 | 35.4 | 0.00 | 0.00 | 0.00 | 46 | 1009.5 |
| 20260508162927 | 12 | 270 | 24.1 | 38.6 | 0.00 | 0.00 | 0.00 | 47 | 1009.6 |
| 20260508162414 | 12 | 293 | 24.1 | 38.6 | 0.00 | 0.00 | 0.00 | 45 | 1009.8 |
| 20260508161909 | 11 | 293 | 27.4 | 37.0 | 0.00 | 0.00 | 0.00 | 49 | 1009.7 |
| 20260508161359 | 12 | 270 | 8.0 | 37.0 | 0.00 | 0.00 | 0.00 | 49 | 1009.5 |
| 20260508160849 | 12 | 270 | 17.7 | 33.8 | 0.00 | 0.00 | 0.00 | 47 | 1009.7 |
| 20260508160337 | 12 | 248 | 16.1 | 33.8 | 0.00 | 0.00 | 0.00 | 48 | 1009.8 |
| 20260508155318 | 12 | 270 | 12.9 | 43.5 | 0.00 | 0.00 | 0.00 | 47 | 1009.9 |
| 20260508154803 | 12 | 248 | 30.6 | 43.5 | 0.00 | 0.00 | 0.00 | 48 | 1010.1 |
| 20260508154258 | 12 | 248 | 11.3 | 43.5 | 0.00 | 0.00 | 0.00 | 48 | 1010.2 |
| 20260508153746 | 11 | 248 | 24.1 | 43.5 | 0.00 | 0.00 | 0.00 | 49 | 1009.9 |
| 20260508153236 | 11 | 248 | 8.0 | 43.5 | 0.00 | 0.00 | 0.00 | 50 | 1010.2 |
| 20260508152723 | 11 | 270 | 16.1 | 43.5 | 0.00 | 0.00 | 0.00 | 48 | 1010.0 |
| 20260508152217 | 11 | 270 | 12.9 | 40.2 | 0.00 | 0.00 | 0.00 | 49 | 1010.2 |
| 20260508151704 | 11 | 248 | 12.9 | 40.2 | 0.00 | 0.00 | 0.00 | 50 | 1010.2 |
| 20260508150642 | 11 | 248 | 4.8 | 38.6 | 0.00 | 0.00 | 0.00 | 53 | 1010.2 |
| 20260508150137 | 11 | 293 | 9.7 | 38.6 | 0.00 | 0.00 | 0.00 | 54 | 1010.3 |
| 20260508145625 | 11 | 270 | 16.1 | 43.5 | 0.00 | 0.00 | 0.00 | 52 | 1010.4 |
| 20260508145117 | 11 | 338 | 6.4 | 46.7 | 0.00 | 0.00 | 0.00 | 52 | 1010.5 |
| 20260508144601 | 10 | 248 | 11.3 | 46.7 | 0.00 | 0.00 | 0.00 | 54 | 1010.5 |
| 20260508144054 | 10 | 270 | 25.7 | 43.5 | 0.00 | 0.00 | 0.00 | 52 | 1010.6 |
| 20260508143545 | 10 | 248 | 24.1 | 43.5 | 0.00 | 0.00 | 0.00 | 53 | 1010.7 |
| 20260508143044 | 10 | 270 | 22.5 | 33.8 | 0.00 | 0.00 | 0.00 | 53 | 1010.5 |
| 20260508142523 | 11 | 270 | 6.4 | 32.2 | 0.00 | 0.00 | 0.00 | 55 | 1010.6 |
| 20260508142018 | 10 | 270 | 17.7 | 33.8 | 0.00 | 0.00 | 0.00 | 54 | 1010.7 |
| 20260508140956 | 10 | 270 | 8.0 | 35.4 | 0.00 | 0.00 | 0.00 | 55 | 1010.7 |
| 20260508140447 | 10 | 248 | 22.5 | 43.5 | 0.00 | 0.00 | 0.00 | 53 | 1010.7 |
| 20260508135426 | 10 | 248 | 12.9 | 35.4 | 0.00 | 0.00 | 0.00 | 55 | 1010.7 |
| 20260508134912 | 10 | 225 | 11.3 | 40.2 | 0.00 | 0.00 | 0.00 | 56 | 1010.7 |
| 20260508133856 | 10 | 270 | 17.7 | 33.8 | 0.00 | 0.00 | 0.00 | 56 | 1010.4 |
| 20260508133343 | 10 | 270 | 9.7 | 33.8 | 0.00 | 0.00 | 0.00 | 56 | 1010.4 |
| 20260508132835 | 10 | 270 | 12.9 | 43.5 | 0.00 | 0.00 | 0.00 | 55 | 1010.4 |
| 20260508132320 | 10 | 270 | 22.5 | 43.5 | 0.00 | 0.00 | 0.00 | 54 | 1010.3 |
| 20260508131810 | 10 | 270 | 17.7 | 38.6 | 0.00 | 0.00 | 0.00 | 57 | 1010.3 |
| 20260508131303 | 10 | 225 | 14.5 | 27.4 | 0.00 | 0.00 | 0.00 | 56 | 1010.2 |
| 20260508130753 | 10 | 270 | 8.0 | 29.0 | 0.00 | 0.00 | 0.00 | 58 | 1010.2 |
| 20260508125732 | 9 | 248 | 12.9 | 40.2 | 0.00 | 0.00 | 0.00 | 60 | 1009.6 |
| 20260508125224 | 9 | 270 | 8.0 | 40.2 | 0.00 | 0.00 | 0.00 | 59 | 1009.8 |
| 20260508124715 | 9 | 225 | 12.9 | 29.0 | 0.00 | 0.00 | 0.00 | 61 | 1009.8 |
| 20260508122122 | 8 | 270 | 3.2 | 32.2 | 0.00 | 0.00 | 0.00 | 63 | 1009.3 |
| 20260508121614 | 8 | 225 | 8.0 | 32.2 | 0.00 | 0.00 | 0.00 | 63 | 1009.3 |
| 20260508121100 | 8 | 270 | 3.2 | 32.2 | 0.00 | 0.00 | 0.00 | 63 | 1009.5 |
| 20260508120549 | 7 | 270 | 9.7 | 37.0 | 0.00 | 0.00 | 0.00 | 63 | 1009.2 |
| 20260508115532 | 7 | 248 | 8.0 | 35.4 | 0.00 | 0.00 | 0.00 | 64 | 1009.2 |
| 20260508115018 | 7 | 270 | 4.8 | 29.0 | 0.00 | 0.00 | 0.00 | 63 | 1009.1 |
| 20260508114515 | 7 | 248 | 9.7 | 29.0 | 0.00 | 0.00 | 0.00 | 63 | 1009.1 |
| 20260508113450 | 7 | 270 | 3.2 | 37.0 | 0.00 | 0.00 | 0.00 | 65 | 1009.1 |
| 20260508112943 | 7 | 270 | 20.9 | 37.0 | 0.00 | 0.00 | 0.00 | 64 | 1008.8 |
| 20260508112430 | 6 | 248 | 6.4 | 35.4 | 0.00 | 0.00 | 0.00 | 65 | 1009.0 |
| 20260508111922 | 6 | 248 | 6.4 | 37.0 | 0.00 | 0.00 | 0.00 | 65 | 1009.0 |
| 20260508111412 | 6 | 248 | 14.5 | 37.0 | 0.00 | 0.00 | 0.00 | 65 | 1009.1 |
| 20260508110905 | 6 | 248 | 22.5 | 37.0 | 0.00 | 0.00 | 0.00 | 65 | 1008.7 |
| 20260508110352 | 6 | 270 | 6.4 | 29.0 | 0.00 | 0.00 | 0.00 | 65 | 1009.0 |
| 20260508105842 | 6 | 248 | 11.3 | 43.5 | 0.00 | 0.00 | 0.00 | 66 | 1008.8 |
| 20260508105332 | 6 | 270 | 9.7 | 43.5 | 0.00 | 0.00 | 0.00 | 66 | 1008.7 |
| 20260508104822 | 6 | 270 | 24.1 | 35.4 | 0.00 | 0.00 | 0.00 | 66 | 1008.7 |
| 20260508104307 | 6 | 248 | 8.0 | 32.2 | 0.00 | 0.00 | 0.00 | 66 | 1008.4 |
| 20260508103246 | 6 | 270 | 4.8 | 24.1 | 0.00 | 0.00 | 0.00 | 68 | 1008.4 |
| 20260508102231 | 6 | 293 | 8.0 | 33.8 | 0.00 | 0.00 | 0.00 | 67 | 1008.4 |
| 20260508101722 | 6 | 225 | 6.4 | 37.0 | 0.00 | 0.00 | 0.00 | 67 | 1008.2 |
| 20260508101211 | 6 | 248 | 9.7 | 37.0 | 0.00 | 0.00 | 0.00 | 67 | 1008.4 |
| 20260508100701 | 6 | 248 | 4.8 | 25.7 | 0.00 | 0.00 | 0.00 | 67 | 1008.4 |
| 20260508100151 | 6 | 270 | 9.7 | 33.8 | 0.00 | 0.00 | 0.00 | 66 | 1008.2 |
| 20260508095643 | 6 | 225 | 4.8 | 33.8 | 0.00 | 0.00 | 0.00 | 66 | 1008.3 |
| 20260508095130 | 6 | 293 | 11.3 | 33.8 | 0.00 | 0.00 | 0.00 | 66 | 1008.4 |
| 20260508094630 | 6 | 248 | 4.8 | 24.1 | 0.00 | 0.00 | 0.00 | 67 | 1008.4 |
| 20260508094108 | 6 | 270 | 6.4 | 29.0 | 0.00 | 0.00 | 0.00 | 66 | 1008.2 |
| 20260508093600 | 6 | 270 | 11.3 | 37.0 | 0.00 | 0.00 | 0.00 | 66 | 1008.2 |
| 20260508093050 | 6 | 270 | 17.7 | 38.6 | 0.00 | 0.00 | 0.00 | 65 | 1008.3 |
| 20260508092540 | 6 | 270 | 17.7 | 38.6 | 0.00 | 0.00 | 0.00 | 65 | 1008.2 |
| 20260508091011 | 6 | 270 | 19.3 | 37.0 | 0.00 | 0.00 | 0.00 | 66 | 1008.0 |
| 20260508090459 | 6 | 270 | 20.9 | 37.0 | 0.00 | 0.00 | 0.00 | 67 | 1007.9 |
| 20260508085949 | 6 | 248 | 14.5 | 32.2 | 0.00 | 0.00 | 0.00 | 68 | 1007.7 |
| 20260508085440 | 6 | 225 | 11.3 | 33.8 | 0.00 | 0.00 | 0.00 | 68 | 1008.0 |
| 20260508084929 | 6 | 270 | 17.7 | 37.0 | 0.00 | 0.00 | 0.00 | 67 | 1007.8 |
| 20260508083910 | 6 | 270 | 17.7 | 38.6 | 0.00 | 0.00 | 0.00 | 70 | 1007.7 |
| 20260508083358 | 6 | 270 | 14.5 | 33.8 | 0.00 | 0.00 | 0.00 | 72 | 1008.0 |
| 20260508082338 | 6 | 270 | 17.7 | 29.0 | 0.00 | 0.00 | 0.00 | 73 | 1007.9 |
| 20260508081830 | 6 | 270 | 16.1 | 29.0 | 0.00 | 0.00 | 0.00 | 74 | 1007.5 |
| 20260508081318 | 6 | 270 | 20.9 | 29.0 | 0.00 | 0.00 | 0.00 | 73 | 1007.8 |
| 20260508075746 | 6 | 270 | 17.7 | 32.2 | 0.00 | 0.00 | 0.00 | 76 | 1007.6 |
| 20260508075237 | 6 | 248 | 20.9 | 32.2 | 0.00 | 0.00 | 0.00 | 76 | 1007.6 |
| 20260508074725 | 6 | 270 | 24.1 | 32.2 | 0.00 | 0.00 | 0.00 | 77 | 1007.7 |
| 20260508074213 | 6 | 270 | 16.1 | 25.7 | 0.00 | 0.00 | 0.00 | 77 | 1007.5 |
| 20260508073708 | 6 | 293 | 14.5 | 27.4 | 0.00 | 0.00 | 0.00 | 76 | 1007.7 |
| 20260508073158 | 6 | 270 | 20.9 | 27.4 | 0.00 | 0.00 | 0.00 | 73 | 1007.9 |
| 20260508072650 | 6 | 293 | 17.7 | 27.4 | 0.00 | 0.00 | 0.00 | 72 | 1008.0 |
| 20260508072137 | 6 | 270 | 14.5 | 22.5 | 0.00 | 0.00 | 0.00 | 74 | 1008.0 |
| 20260508071629 | 6 | 270 | 12.9 | 20.9 | 0.00 | 0.00 | 0.00 | 76 | 1008.2 |
| 20260508071115 | 6 | 293 | 14.5 | 20.9 | 0.00 | 0.00 | 0.00 | 76 | 1008.0 |
| 20260508070607 | 6 | 293 | 16.1 | 22.5 | 0.00 | 0.00 | 0.00 | 76 | 1008.2 |
| 20260508065555 | 7 | 270 | 12.9 | 22.5 | 0.00 | 0.00 | 0.00 | 75 | 1008.3 |
| 20260508065036 | 7 | 293 | 16.1 | 24.1 | 0.00 | 0.00 | 0.00 | 73 | 1008.3 |
| 20260508064535 | 7 | 270 | 14.5 | 24.1 | 0.00 | 0.00 | 0.00 | 73 | 1008.3 |
| 20260508064014 | 7 | 270 | 12.9 | 24.1 | 0.00 | 0.00 | 0.00 | 72 | 1008.2 |
| 20260508063502 | 7 | 293 | 12.9 | 0.0 | 0.00 | 0.00 | 0.00 | 73 | 1008.3 |
| 20260508063219 | 7 | 293 | 9.7 | 0.0 | 0.00 | 0.00 | 0.00 | 72 | 1008.3 |
| 20260508062551 | 8 | 270 | 11.3 | 29.0 | 0.00 | 0.00 | 0.00 | 71 | 1008.3 |
| 20260508061513 | 8 | 248 | 6.4 | 25.7 | 0.00 | 0.00 | 0.00 | 71 | 1008.6 |
| 20260508061007 | 8 | 270 | 6.4 | 27.4 | 0.00 | 0.00 | 0.00 | 72 | 1008.2 |
| 20260508060452 | 8 | 248 | 4.8 | 27.4 | 0.00 | 0.00 | 0.00 | 71 | 1008.4 |
| 20260508055950 | 8 | 315 | 6.4 | 25.7 | 0.00 | 0.00 | 0.00 | 72 | 1008.4 |
| 20260508055435 | 8 | 270 | 14.5 | 25.7 | 0.00 | 0.00 | 0.00 | 71 | 1008.6 |
| 20260508054926 | 8 | 270 | 6.4 | 29.0 | 0.00 | 0.00 | 0.00 | 72 | 1008.4 |
| 20260508054415 | 8 | 158 | 8.0 | 29.0 | 0.00 | 0.00 | 0.00 | 72 | 1008.3 |
| 20260508053906 | 8 | 203 | 6.4 | 27.4 | 0.00 | 0.00 | 0.00 | 73 | 1008.2 |
| 20260508052846 | 9 | 270 | 9.7 | 25.7 | 0.00 | 0.00 | 0.00 | 70 | 1008.2 |
| 20260508052336 | 9 | 270 | 4.8 | 25.7 | 0.00 | 0.00 | 0.00 | 70 | 1008.3 |
| 20260508051823 | 9 | 270 | 11.3 | 24.1 | 0.00 | 0.00 | 0.00 | 70 | 1008.1 |
| 20260508051316 | 9 | 270 | 6.4 | 22.5 | 0.00 | 0.00 | 0.00 | 73 | 1008.5 |
| 20260508050806 | 8 | 248 | 3.2 | 24.1 | 0.00 | 0.00 | 0.00 | 77 | 1008.3 |
| 20260508050255 | 8 | 270 | 12.9 | 25.7 | 0.00 | 0.00 | 0.00 | 79 | 1008.2 |
| 20260508045742 | 8 | 270 | 12.9 | 25.7 | 0.00 | 0.00 | 0.00 | 79 | 1008.6 |
| 20260508045233 | 8 | 270 | 12.9 | 20.9 | 0.00 | 0.00 | 0.00 | 80 | 1008.3 |
| 20260508044723 | 8 | 270 | 14.5 | 20.9 | 0.00 | 0.00 | 0.00 | 80 | 1008.2 |
| 20260508044212 | 8 | 293 | 12.9 | 22.5 | 0.00 | 0.00 | 0.00 | 81 | 1008.0 |
| 20260508043155 | 8 | 293 | 11.3 | 22.5 | 0.00 | 0.00 | 0.00 | 80 | 1008.1 |
| 20260508042644 | 8 | 293 | 8.0 | 22.5 | 0.00 | 0.00 | 0.00 | 80 | 1008.1 |
| 20260508042132 | 8 | 293 | 11.3 | 20.9 | 0.00 | 0.00 | 0.00 | 80 | 1008.3 |
| 20260508041624 | 8 | 270 | 11.3 | 20.9 | 0.00 | 0.00 | 0.00 | 80 | 1008.3 |
| 20260508040604 | 8 | 270 | 12.9 | 24.1 | 0.00 | 0.00 | 0.00 | 80 | 1008.1 |
| 20260508040104 | 8 | 293 | 14.5 | 20.9 | 0.00 | 0.00 | 0.00 | 80 | 1008.4 |
| 20260508035544 | 8 | 293 | 16.1 | 20.9 | 0.00 | 0.00 | 0.00 | 81 | 1008.2 |
| 20260508035028 | 8 | 293 | 12.9 | 17.7 | 0.00 | 0.00 | 0.00 | 82 | 1008.2 |
| 20260508034014 | 8 | 270 | 8.0 | 17.7 | 0.00 | 0.00 | 0.00 | 82 | 1008.2 |
| 20260508033503 | 8 | 270 | 8.0 | 17.7 | 0.00 | 0.00 | 0.00 | 82 | 1008.2 |
| 20260508032954 | 8 | 293 | 4.8 | 14.5 | 0.00 | 0.00 | 0.00 | 81 | 1008.1 |
| 20260508032441 | 8 | 270 | 6.4 | 14.5 | 0.00 | 0.00 | 0.00 | 82 | 1007.9 |
| 20260508031930 | 8 | 270 | 8.0 | 14.5 | 0.00 | 0.00 | 0.00 | 81 | 1008.0 |
| 20260508031424 | 9 | 293 | 6.4 | 12.9 | 0.00 | 0.00 | 0.00 | 81 | 1008.0 |
| 20260508025852 | 9 | 270 | 0.0 | 11.3 | 0.00 | 0.00 | 1.55 | 80 | 1007.4 |
| 20260508025339 | 9 | 270 | 3.2 | 11.3 | 0.00 | 0.00 | 1.55 | 81 | 1007.3 |
| 20260508024832 | 9 | 293 | 0.0 | 6.4 | 0.00 | 0.00 | 1.55 | 80 | 1007.3 |
| 20260508024321 | 10 | 270 | 0.0 | 6.4 | 0.00 | 0.00 | 1.55 | 80 | 1007.3 |
| 20260508023812 | 10 | 293 | 0.0 | 6.4 | 0.00 | 0.00 | 1.55 | 79 | 1007.4 |
| 20260508023304 | 10 | 270 | 0.0 | 6.4 | 0.00 | 0.00 | 1.55 | 79 | 1007.3 |
| 20260508022756 | 10 | 270 | 0.0 | 6.4 | 0.00 | 0.00 | 1.55 | 78 | 1007.2 |
| 20260508022251 | 11 | 270 | 1.6 | 6.4 | 0.00 | 0.00 | 1.55 | 76 | 1007.4 |
| 20260508021737 | 11 | 270 | 0.0 | 6.4 | 0.00 | 0.00 | 1.55 | 76 | 1007.1 |
| 20260508021222 | 11 | 248 | 3.2 | 6.4 | 0.00 | 0.00 | 1.55 | 75 | 1007.2 |
| 20260508020904 | 11 | 270 | 0.0 | 0.0 | 0.00 | 0.00 | 1.55 | 75 | 1007.4 |
| 20260508020455 | 11 | 270 | 1.6 | 12.9 | 0.00 | 0.00 | 1.55 | 75 | 1007.1 |
| 20260508015944 | 11 | 248 | 0.0 | 12.9 | 0.00 | 0.00 | 1.55 | 75 | 1007.2 |
| 20260508015435 | 11 | 270 | 0.0 | 11.3 | 0.00 | 0.00 | 1.55 | 74 | 1007.2 |
| 20260508014922 | 11 | 248 | 1.6 | 14.5 | 0.00 | 0.00 | 1.55 | 73 | 1007.1 |
| 20260508014415 | 12 | 248 | 1.6 | 14.5 | 0.00 | 0.00 | 1.55 | 73 | 1007.2 |
| 20260508013905 | 12 | 293 | 0.0 | 6.4 | 0.00 | 0.00 | 1.55 | 72 | 1007.1 |
| 20260508013354 | 12 | 248 | 0.0 | 6.4 | 0.00 | 0.00 | 1.55 | 72 | 1007.2 |
| 20260508012841 | 12 | 203 | 0.0 | 6.4 | 0.00 | 0.00 | 1.55 | 72 | 1007.1 |
| 20260508011314 | 12 | 113 | 0.0 | 6.4 | 0.00 | 0.00 | 1.55 | 72 | 1007.3 |
| 20260508010804 | 12 | 293 | 0.0 | 6.4 | 0.00 | 0.00 | 1.55 | 71 | 1007.1 |
| 20260508010254 | 12 | 338 | 0.0 | 6.4 | 0.00 | 0.00 | 1.55 | 71 | 1007.2 |
| 20260508005740 | 12 | 270 | 0.0 | 6.4 | 0.00 | 0.00 | 1.55 | 71 | 1007.4 |
| 20260508005233 | 12 | 203 | 0.0 | 9.7 | 0.00 | 0.00 | 1.55 | 71 | 1007.2 |
| 20260508004722 | 12 | 248 | 1.6 | 11.3 | 0.00 | 0.00 | 1.55 | 68 | 1007.2 |
| 20260508004213 | 12 | 270 | 1.6 | 11.3 | 0.00 | 0.00 | 1.55 | 69 | 1007.1 |
| 20260508003703 | 12 | 248 | 3.2 | 11.3 | 0.00 | 0.00 | 1.55 | 68 | 1007.1 |
| 20260508003152 | 13 | 293 | 0.0 | 11.3 | 0.00 | 0.00 | 1.55 | 67 | 1007.2 |
| 20260508002642 | 13 | 293 | 0.0 | 14.5 | 0.00 | 0.00 | 1.55 | 67 | 1007.0 |
| 20260508002133 | 13 | 203 | 6.4 | 14.5 | 0.00 | 0.00 | 1.55 | 66 | 1007.1 |
| 20260508001622 | 13 | 225 | 1.6 | 9.7 | 0.00 | 0.00 | 1.55 | 65 | 1007.5 |
| 20260508001109 | 13 | 293 | 1.6 | 9.7 | 0.00 | 0.00 | 1.55 | 64 | 1007.2 |
| 20260508000604 | 13 | 293 | 1.6 | 22.5 | 0.00 | 0.00 | 1.55 | 64 | 1007.5 |
| 20260508000053 | 13 | 293 | 1.6 | 22.5 | 0.00 | 0.00 | 1.55 | 63 | 1007.3 |
| 20260507235538 | 13 | 315 | 3.2 | 14.5 | 0.00 | 0.00 | 1.55 | 63 | 1007.6 |
| 20260507235031 | 13 | 248 | 3.2 | 17.7 | 0.00 | 0.00 | 1.55 | 63 | 1007.4 |
| 20260507234517 | 13 | 225 | 3.2 | 17.7 | 0.00 | 0.00 | 1.55 | 62 | 1007.4 |
| 20260507234010 | 13 | 0 | 0.0 | 6.4 | 0.00 | 0.00 | 1.55 | 63 | 1007.5 |
| 20260507232947 | 14 | 293 | 1.6 | 6.4 | 0.00 | 0.00 | 1.55 | 62 | 1007.4 |
| 20260507232444 | 14 | 225 | 0.0 | 6.4 | 0.00 | 0.00 | 1.55 | 62 | 1007.4 |
| 20260507231927 | 14 | 293 | 0.0 | 11.3 | 0.00 | 0.00 | 1.55 | 63 | 1007.6 |
| 20260507231416 | 14 | 90 | 0.0 | 11.3 | 0.00 | 0.00 | 1.55 | 63 | 1007.5 |
| 20260507230906 | 14 | 225 | 1.6 | 11.3 | 0.00 | 0.00 | 1.55 | 63 | 1007.4 |
| 20260507230402 | 14 | 293 | 0.0 | 14.5 | 0.00 | 0.00 | 1.55 | 63 | 1007.4 |
| 20260507225336 | 14 | 293 | 1.6 | 11.3 | 0.00 | 0.00 | 1.55 | 65 | 1007.2 |
| 20260507224301 | 14 | 225 | 0.0 | 20.9 | 0.00 | 0.00 | 1.55 | 66 | 1007.3 |
| 20260507223753 | 14 | 0 | 0.0 | 20.9 | 0.00 | 0.00 | 1.55 | 65 | 1007.2 |
| 20260507222226 | 14 | 293 | 0.0 | 14.5 | 0.00 | 0.00 | 1.55 | 65 | 1007.0 |
| 20260507221710 | 14 | 270 | 3.2 | 14.5 | 0.00 | 0.00 | 1.55 | 66 | 1006.9 |
| 20260507221203 | 14 | 270 | 0.0 | 9.7 | 0.00 | 0.00 | 1.55 | 66 | 1006.7 |
| 20260507215636 | 14 | 248 | 0.0 | 17.7 | 0.00 | 0.00 | 1.55 | 66 | 1006.7 |
| 20260507215122 | 14 | 113 | 0.0 | 17.7 | 0.00 | 0.00 | 1.55 | 66 | 1006.1 |
| 20260507214615 | 14 | 270 | 1.6 | 6.4 | 0.00 | 0.00 | 1.55 | 66 | 1006.0 |
| 20260507214107 | 14 | 203 | 0.0 | 6.4 | 0.00 | 0.00 | 1.55 | 66 | 1005.7 |
| 20260507213047 | 14 | 293 | 1.6 | 12.9 | 0.00 | 0.00 | 1.55 | 66 | 1005.5 |
| 20260507212532 | 14 | 293 | 1.6 | 9.7 | 0.00 | 0.00 | 1.55 | 66 | 1005.5 |
| 20260507212022 | 14 | 158 | 1.6 | 9.7 | 0.00 | 0.00 | 1.55 | 66 | 1005.8 |
| 20260507211516 | 14 | 203 | 3.2 | 14.5 | 0.00 | 0.00 | 1.55 | 65 | 1005.6 |
| 20260507211004 | 14 | 90 | 0.0 | 17.7 | 0.00 | 0.00 | 1.55 | 65 | 1005.5 |
| 20260507210453 | 15 | 158 | 6.4 | 22.5 | 0.00 | 0.00 | 1.55 | 63 | 1005.6 |
| 20260507205941 | 15 | 45 | 6.4 | 22.5 | 0.00 | 0.00 | 1.55 | 64 | 1005.6 |
| 20260507205431 | 15 | 248 | 3.2 | 12.9 | 0.00 | 0.00 | 1.55 | 66 | 1005.4 |
| 20260507204414 | 15 | 23 | 3.2 | 17.7 | 0.00 | 0.00 | 1.55 | 65 | 1005.9 |
| 20260507203902 | 15 | 225 | 1.6 | 11.3 | 0.00 | 0.00 | 1.55 | 65 | 1005.7 |
| 20260507203352 | 15 | 158 | 3.2 | 12.9 | 0.00 | 0.00 | 1.55 | 64 | 1005.5 |
| 20260507202837 | 15 | 248 | 3.2 | 12.9 | 0.00 | 0.00 | 1.55 | 64 | 1005.7 |
| 20260507202334 | 15 | 225 | 0.0 | 14.5 | 0.00 | 0.00 | 1.55 | 65 | 1005.8 |
| 20260507201820 | 15 | 180 | 0.0 | 14.5 | 0.00 | 0.00 | 1.55 | 64 | 1005.8 |
| 20260507201312 | 15 | 270 | 3.2 | 14.5 | 0.00 | 0.00 | 1.55 | 63 | 1005.6 |
| 20260507200802 | 15 | 293 | 3.2 | 17.7 | 0.00 | 0.00 | 1.55 | 63 | 1005.6 |
| 20260507200252 | 15 | 180 | 6.4 | 17.7 | 0.00 | 0.00 | 1.55 | 62 | 1005.7 |
| 20260507195737 | 15 | 225 | 4.8 | 17.7 | 0.00 | 0.00 | 1.55 | 61 | 1005.6 |
| 20260507195236 | 15 | 180 | 3.2 | 17.7 | 0.00 | 0.00 | 1.55 | 63 | 1005.6 |